Anaktuvuk Pass, AK

8:57 AM AKDT on July 25, 2017 (GMT -0800)
Anaktuvuk Pass

Weather History for PAKP - September, 2012

Change the Weather History Date:

Saturday, September 22, 2012

  Actual Average Record
Temperature  
Mean Temperature 37 °F -  
Max Temperature 44 °F 31 °F 46 °F (2006)
Min Temperature 30 °F 20 °F 3 °F (2003)
Degree Days  
Heating Degree Days 28    
Moisture  
Dew Point 32 °F    
Average Humidity 81    
Maximum Humidity 87    
Minimum Humidity 76    
Precipitation  
Precipitation 0.00 in - - ()
Sea Level Pressure  
Sea Level Pressure 29.53 in    
Wind  
Wind Speed 3 mph (WSW)    
Max Wind Speed 12 mph    
Max Gust Speed -    
Visibility 10 miles    
Events      
Averages and records for this station are not official NWS values.
T = Trace of Precipitation, MM = Missing Value Source: NWS Daily Summary

Daily Weather History Graph

Daily Weather History Graph

Search for Another Location

Airport or City:

Trip Planner

Search our weather history database for the weather conditions in past years. The results will help you decide how hot, cold, wet, or windy it might be!

Date:

Astronomy

Sep. 22, 2012 Rise Set
Actual Time 7:50 AM AKDT 8:06 PM AKDT
Civil Twilight 6:54 AM AKDT 9:02 PM AKDT
Nautical Twilight 5:43 AM AKDT 10:12 PM AKDT
Astronomical Twilight 4:14 AM AKDT 11:38 PM AKDT
Moon 6:49 PM AKDT (9/22) 9:55 PM AKDT (9/22)
Length of Visible Light 14h 07m
Length of Day
12h 15m
Waxing Crescent, 50% of the Moon is Illuminated
Sep 22
Waxing Crescent
Sep 29
Full
Oct 7
Last Quarter
Oct 15
New
Oct 21
First Quarter

Hourly Weather History & Observations

Time (AKDT) Temp. Windchill Dew Point Humidity Pressure Visibility Wind Dir Wind Speed Gust Speed Precip Events Conditions
12:16 AM 35.6 °F - 30.2 °F 81% 29.80 in 10.0 mi Calm Calm - N/A   Partly Cloudy
12:36 AM 33.8 °F - 28.4 °F 81% 29.79 in 10.0 mi Calm Calm - N/A   Clear
12:56 AM 33.8 °F - 28.4 °F 81% 29.77 in 10.0 mi Calm Calm - N/A   Clear
1:16 AM 33.8 °F - 28.4 °F 81% 29.77 in 10.0 mi Calm Calm - N/A   Clear
1:36 AM 33.8 °F 27.0 °F 28.4 °F 81% 29.77 in 10.0 mi NNE 8.1 mph - N/A   Clear
1:56 AM 33.8 °F 29.6 °F 28.4 °F 81% 29.77 in 10.0 mi NE 4.6 mph - N/A   Clear
2:16 AM 32.0 °F 26.4 °F 28.4 °F 87% 29.76 in 5.0 mi North 5.8 mph - N/A   Partly Cloudy
2:36 AM 32.0 °F 25.6 °F 28.4 °F 87% 29.76 in 5.0 mi North 6.9 mph - N/A   Partly Cloudy
2:56 AM 32.0 °F 25.6 °F 26.6 °F 80% 29.75 in 10.0 mi NNE 6.9 mph - N/A   Clear
3:16 AM 32.0 °F - 26.6 °F 80% 29.75 in 10.0 mi Calm Calm - N/A   Clear
3:36 AM 32.0 °F - 28.4 °F 87% 29.75 in 10.0 mi Calm Calm - N/A   Clear
3:56 AM 32.0 °F - 26.6 °F 80% 29.73 in 10.0 mi Calm Calm - N/A   Clear
4:16 AM 32.0 °F - 26.6 °F 80% 29.71 in 10.0 mi Calm Calm - N/A   Clear
4:36 AM 32.0 °F - 26.6 °F 80% 29.70 in 10.0 mi Calm Calm - N/A   Clear
4:56 AM 30.2 °F 24.3 °F 26.6 °F 86% 29.71 in 10.0 mi North 5.8 mph - N/A   Clear
5:16 AM 32.0 °F 26.4 °F 26.6 °F 80% 29.69 in 10.0 mi North 5.8 mph - N/A   Partly Cloudy
5:36 AM 32.0 °F 27.5 °F 26.6 °F 80% 29.68 in 10.0 mi NNE 4.6 mph - N/A   Mostly Cloudy
5:56 AM 33.8 °F 30.8 °F 28.4 °F 81% 29.66 in 10.0 mi North 3.5 mph - N/A   Overcast
6:16 AM 33.8 °F 29.6 °F 28.4 °F 81% 29.65 in 10.0 mi NNW 4.6 mph - N/A   Overcast
6:56 AM 33.8 °F - 28.4 °F 81% 29.64 in 10.0 mi Calm Calm - N/A   Overcast
7:16 AM 33.8 °F 30.8 °F 28.4 °F 81% 29.63 in 10.0 mi NNW 3.5 mph - N/A   Overcast
7:36 AM 33.8 °F 30.8 °F 28.4 °F 81% 29.63 in 10.0 mi North 3.5 mph - N/A   Overcast
7:56 AM 33.8 °F 30.8 °F 28.4 °F 81% 29.61 in 10.0 mi North 3.5 mph - N/A   Overcast
8:16 AM 33.8 °F 30.8 °F 28.4 °F 81% 29.61 in 10.0 mi NNE 3.5 mph - N/A   Overcast
8:36 AM 33.8 °F 30.8 °F 28.4 °F 81% 29.61 in 10.0 mi North 3.5 mph - N/A   Overcast
8:56 AM 33.8 °F 29.6 °F 28.4 °F 81% 29.60 in 10.0 mi NW 4.6 mph - N/A   Overcast
9:16 AM 33.8 °F 30.8 °F 28.4 °F 81% 29.60 in 10.0 mi North 3.5 mph - N/A   Overcast
9:36 AM 33.8 °F 29.6 °F 28.4 °F 81% 29.58 in 10.0 mi North 4.6 mph - N/A   Overcast
9:56 AM 33.8 °F - 30.2 °F 87% 29.57 in 10.0 mi Calm Calm - N/A   Overcast
10:16 AM 33.8 °F 30.8 °F 30.2 °F 87% 29.56 in 10.0 mi North 3.5 mph - N/A   Overcast
10:36 AM 33.8 °F 29.6 °F 30.2 °F 87% 29.55 in 10.0 mi North 4.6 mph - N/A   Overcast
10:56 AM 35.6 °F - 30.2 °F 81% 29.54 in 10.0 mi Calm Calm - N/A   Overcast
11:16 AM 35.6 °F 32.8 °F 30.2 °F 81% 29.53 in 10.0 mi NW 3.5 mph - N/A   Overcast
11:36 AM 35.6 °F - 30.2 °F 81% 29.52 in 10.0 mi Calm Calm - N/A   Overcast
11:56 AM 37.4 °F - 32.0 °F 81% 29.51 in 10.0 mi Calm Calm - N/A   Overcast
12:16 PM 37.4 °F 33.8 °F 32.0 °F 81% 29.51 in 10.0 mi SSW 4.6 mph - N/A   Overcast
12:36 PM 37.4 °F 33.8 °F 32.0 °F 81% 29.50 in 10.0 mi South 4.6 mph - N/A   Overcast
12:56 PM 37.4 °F 30.3 °F 33.8 °F 87% 29.48 in 10.0 mi SSW 10.4 mph - N/A   Overcast
1:16 PM 39.2 °F 32.5 °F 33.8 °F 81% 29.48 in 10.0 mi SSW 10.4 mph - N/A   Partly Cloudy
1:36 PM 39.2 °F 33.0 °F 33.8 °F 81% 29.46 in 10.0 mi South 9.2 mph - N/A   Scattered Clouds
1:56 PM 39.2 °F 32.5 °F 35.6 °F 87% 29.45 in 10.0 mi South 10.4 mph - N/A   Partly Cloudy
2:16 PM 41.0 °F 34.7 °F 35.6 °F 81% 29.44 in 10.0 mi South 10.4 mph - N/A   Clear
2:36 PM 41.0 °F 34.7 °F 35.6 °F 81% 29.44 in 10.0 mi SSW 10.4 mph - N/A   Clear
2:56 PM 42.8 °F 37.0 °F 35.6 °F 76% 29.43 in 10.0 mi SSW 10.4 mph - N/A   Clear
3:16 PM 42.8 °F 36.6 °F 35.6 °F 76% 29.42 in 10.0 mi South 11.5 mph - N/A   Clear
3:36 PM 42.8 °F 37.5 °F 35.6 °F 76% 29.41 in 10.0 mi SSW 9.2 mph - N/A   Clear
3:56 PM 42.8 °F 37.0 °F 37.4 °F 81% 29.40 in 10.0 mi SSW 10.4 mph - N/A   Clear
4:16 PM 42.8 °F 37.0 °F 37.4 °F 81% 29.40 in 10.0 mi SSW 10.4 mph - N/A   Scattered Clouds
4:36 PM 42.8 °F 38.6 °F 37.4 °F 81% 29.39 in 10.0 mi SSW 6.9 mph - N/A   Partly Cloudy
4:56 PM 42.8 °F 38.6 °F 37.4 °F 81% 29.39 in 10.0 mi SSW 6.9 mph - N/A   Clear
5:16 PM 44.6 °F 40.7 °F 37.4 °F 76% 29.39 in 10.0 mi SSW 6.9 mph - N/A   Mostly Cloudy
5:36 PM 44.6 °F 40.2 °F 37.4 °F 76% 29.38 in 10.0 mi South 8.1 mph - N/A   Mostly Cloudy
5:56 PM 44.6 °F 40.7 °F 37.4 °F 76% 29.38 in 10.0 mi SSW 6.9 mph - N/A   Partly Cloudy
6:16 PM 44.6 °F 40.7 °F 37.4 °F 76% 29.37 in 10.0 mi South 6.9 mph - N/A   Mostly Cloudy
6:36 PM 44.6 °F - 37.4 °F 76% 29.37 in 10.0 mi Calm Calm - N/A   Overcast
6:56 PM 44.6 °F 43.1 °F 37.4 °F 76% 29.36 in 10.0 mi SE 3.5 mph - N/A   Overcast
7:16 PM 42.8 °F 40.1 °F 37.4 °F 81% 29.37 in 10.0 mi South 4.6 mph - N/A   Overcast
7:36 PM 42.8 °F 38.6 °F 37.4 °F 81% 29.37 in 10.0 mi South 6.9 mph - N/A   Overcast
7:56 PM 42.8 °F 41.1 °F 37.4 °F 81% 29.37 in 10.0 mi SSE 3.5 mph - N/A   Overcast
8:16 PM 42.8 °F 38.6 °F 37.4 °F 81% 29.36 in 10.0 mi South 6.9 mph - N/A   Overcast
8:36 PM 44.6 °F - 37.4 °F 76% 29.36 in 10.0 mi Calm Calm - N/A   Overcast
8:56 PM 42.8 °F 40.1 °F 35.6 °F 76% 29.37 in 10.0 mi SSE 4.6 mph - N/A   Overcast
9:16 PM 42.8 °F - 37.4 °F 81% 29.36 in 10.0 mi Calm Calm - N/A   Overcast
9:36 PM 42.8 °F 41.1 °F 35.6 °F 76% 29.36 in 10.0 mi SW 3.5 mph - N/A   Overcast
9:56 PM 41.0 °F - 35.6 °F 81% 29.36 in 10.0 mi Calm Calm - N/A   Overcast
10:16 PM 41.0 °F - 35.6 °F 81% 29.36 in 10.0 mi Calm Calm - N/A   Overcast
10:36 PM 41.0 °F - 35.6 °F 81% 29.36 in 10.0 mi Calm Calm - N/A   Overcast
10:56 PM 42.8 °F - 35.6 °F 76% 29.37 in 10.0 mi Calm Calm - N/A   Overcast
11:16 PM 44.6 °F 42.2 °F 37.4 °F 76% 29.36 in 10.0 mi NW 4.6 mph - N/A   Overcast
11:36 PM 44.6 °F 43.1 °F 37.4 °F 76% 29.36 in 10.0 mi NNW 3.5 mph - N/A   Overcast
11:56 PM 44.6 °F 43.1 °F 37.4 °F 76% 29.36 in 10.0 mi WNW 3.5 mph - N/A   Overcast